Tracking 27188 objects as of 1-Apr-2023
HD Live streaming from Space Station
objects crossing your sky now

OPS 6026 (DMSP 4A F1)

Track OPS 6026 (DMSP 4A F1) now!
10-day predictions
OPS 6026 (DMSP 4A F1) is classified as:


NORAD ID: 2418
Int'l Code: 1966-082A
Perigee: 674.4 km
Apogee: 842.5 km
Inclination: 98.2 °
Period: 99.8 minutes
Semi major axis: 7129 km
RCS: 0.634 m2 (medium)
Launch date: September 16, 1966
Source: United States (US)
Launch site: AIR FORCE WESTERN TEST RANGE (AFWTR)
Your satellite tracking list
Your tracking list is empty




NASA's NSSDC Master Catalog

Two Line Element Set (TLE):
1  2418U 66082A   23090.22022164  .00000622  00000-0  18691-3 0  9998
2  2418  98.2045 261.8362 0117892 342.0260  17.6778 14.42176786963682
Source of the keplerian elements: AFSPC